QPF
0.05 0.05 0.06 0.06 0.06 0.07 0.07 0.06 0.06 0.05 0.04 0.03 0.03 0.03 0.02 0.02 0.02 0.02 0.03 0.03 0.02 0.02 0.01 0.01 0.01 0.01 0.01 0.01 0.01 0.01 0.01 0.01 0.01 0.01 0.00 0.00 0.00 0.01 0.00 0.01 0.00 0.01 0.00
0.05 0.04 0.05 0.05 0.04 0.04 0.04 0.04 0.03 0.03 0.02 0.02 0.02 0.01 0.01 0.01 0.01 0.01 0.01 0.01 0.01 0.01 0.00 0.00 0.00 0.01 0.01 0.01 0.01 0.01 0.01 0.01 0.02 0.01 0.01 0.01 0.01 0.01 0.01 0.02 0.01 0.01 0.01
0.03 0.03 0.04 0.04 0.04 0.03 0.03 0.03 0.02 0.02 0.01 0.01 0.01 0.01 0.01 0.01 0.01 0.01 0.01 0.00 0.00 0.00 0.00 0.00 0.00 0.00 0.01 0.01 0.01 0.01 0.01 0.01 0.02 0.02 0.02 0.02 0.02 0.02 0.02 0.02 0.01 0.02 0.01
0.03 0.03 0.03 0.04 0.04 0.03 0.03 0.02 0.02 0.01 0.01 0.01 0.01 0.01 0.01 0.01 0.00 0.00 0.00 0.00 0.00 0.00 0.00 0.00 0.00 0.00 0.01 0.01 0.01 0.01 0.01 0.01 0.02 0.02 0.02 0.02 0.02 0.02 0.03 0.03 0.02 0.03 0.02
0.02 0.02 0.02 0.02 0.03 0.03 0.03 0.02 0.01 0.01 0.01 0.01 0.01 0.00 0.00 0.00 0.00 0.00 0.00 0.00 0.00 0.01 0.01 0.00 0.00 0.00 0.00 0.00 0.00 0.00 0.01 0.01 0.01 0.02 0.02 0.03 0.03 0.04 0.04 0.04 0.03 0.03 0.02
0.02 0.02 0.02 0.01 0.01 0.01 0.01 0.02 0.01 0.01 0.01 0.01 0.01 0.00 0.00 0.00 0.00 0.00 0.00 0.00 0.01 0.01 0.01 0.01 0.01 0.00 0.00 0.00 0.00 0.00 0.00 0.00 0.01 0.02 0.03 0.04 0.04 0.06 0.06 0.04 0.05 0.04 0.03
0.02 0.02 0.01 0.01 0.01 0.01 0.02 0.02 0.02 0.02 0.01 0.01 0.01 0.01 0.01 0.00 0.00 0.00 0.00 0.00 0.01 0.01 0.01 0.01 0.01 0.01 0.01 0.01 0.01 0.01 0.02 0.02 0.01 0.01 0.02 0.04 0.05 0.06 0.05 0.03 0.04 0.04 0.03
0.02 0.02 0.02 0.02 0.02 0.02 0.02 0.02 0.02 0.02 0.02 0.02 0.01 0.02 0.02 0.00 0.00 0.00 0.00 0.00 0.02 0.02 0.02 0.01 0.02 0.02 0.01 0.00 0.00 0.01 0.04 0.06 0.04 0.03 0.04 0.04 0.03 0.02 0.02 0.02 0.02 0.02 0.03
0.01 0.01 0.01 0.00 0.01 0.01 0.01 0.02 0.01 0.02 0.02 0.01 0.01 0.01 0.02 0.01 0.00 0.00 0.00 0.01 0.02 0.02 0.02 0.01 0.01 0.01 0.00 0.00 0.00 0.02 0.04 0.05 0.03 0.01 0.01 0.01 0.00 0.00 0.00 0.00 0.02 0.04 0.04
0.01 0.01 0.00 0.01 0.01 0.01 0.01 0.02 0.01 0.02 0.02 0.01 0.01 0.01 0.02 0.02 0.00 0.00 0.00 0.00 0.01 0.02 0.03 0.03 0.01 0.00 0.00 0.00 0.00 0.01 0.03 0.02 0.02 0.03 0.05 0.06 0.05 0.04 0.01 0.01 0.04 0.05 0.05
0.01 0.01 0.01 0.01 0.01 0.01 0.01 0.01 0.02 0.02 0.03 0.03 0.02 0.03 0.03 0.01 0.00 0.00 0.00 0.00 0.00 0.02 0.04 0.04 0.03 0.00 0.00 0.00 0.00 0.01 0.01 0.00 0.01 0.04 0.07 0.08 0.08 0.07 0.06 0.05 0.06 0.06 0.05
0.00 0.00 0.01 0.00 0.00 0.00 0.01 0.02 0.02 0.03 0.03 0.03 0.03 0.03 0.03 0.02 0.01 0.00 0.00 0.00 0.00 0.01 0.04 0.02 0.01 0.00 0.00 0.00 0.00 0.00 0.00 0.00 0.04 0.07 0.08 0.08 0.06 0.06 0.05 0.04 0.05 0.06 0.07
0.01 0.01 0.01 0.01 0.00 0.00 0.01 0.01 0.02 0.03 0.03 0.02 0.03 0.02 0.03 0.04 0.02 0.00 0.00 0.00 0.00 0.01 0.02 0.00 0.00 0.00 0.00 0.02 0.01 0.00 0.01 0.04 0.07 0.07 0.07 0.08 0.07 0.06 0.05 0.05 0.05 0.06 0.06
0.01 0.01 0.01 0.02 0.01 0.01 0.01 0.00 0.00 0.01 0.02 0.01 0.02 0.03 0.04 0.05 0.02 0.00 0.00 0.01 0.01 0.01 0.01 0.01 0.02 0.02 0.02 0.02 0.03 0.04 0.05 0.05 0.05 0.06 0.07 0.07 0.06 0.06 0.06 0.05 0.05 0.06 0.07
0.01 0.01 0.02 0.02 0.02 0.01 0.01 0.00 0.00 0.00 0.00 0.00 0.01 0.01 0.01 0.02 0.00 0.00 0.00 0.00 0.00 0.00 0.00 0.03 0.07 0.07 0.07 0.07 0.07 0.06 0.06 0.05 0.05 0.07 0.07 0.07 0.06 0.06 0.06 0.06 0.07 0.07 0.07
0.02 0.01 0.01 0.01 0.01 0.01 0.01 0.02 0.00 0.00 0.00 0.00 0.00 0.00 0.00 0.00 0.00 0.00 0.00 0.00 0.00 0.00 0.01 0.04 0.06 0.05 0.05 0.05 0.05 0.05 0.04 0.04 0.04 0.06 0.07 0.07 0.07 0.07 0.06 0.05 0.06 0.07 0.08
0.01 0.01 0.00 0.00 0.00 0.00 0.01 0.02 0.03 0.01 0.00 0.00 0.00 0.00 0.00 0.00 0.00 0.00 0.00 0.00 0.00 0.00 0.02 0.04 0.04 0.04 0.04 0.04 0.04 0.04 0.04 0.04 0.04 0.05 0.06 0.06 0.05 0.06 0.06 0.06 0.05 0.06 0.06
0.00 0.00 0.00 0.00 0.00 0.01 0.01 0.01 0.02 0.03 0.03 0.02 0.01 0.00 0.00 0.00 0.00 0.00 0.00 0.01 0.03 0.02 0.03 0.03 0.03 0.03 0.03 0.03 0.03 0.03 0.03 0.03 0.04 0.05 0.05 0.04 0.04 0.04 0.05 0.05 0.05 0.04 0.04
0.00 0.00 0.00 0.00 0.00 0.00 0.00 0.00 0.00 0.01 0.02 0.04 0.03 0.02 0.00 0.00 0.00 0.00 0.00 0.01 0.01 0.01 0.01 0.02 0.02 0.02 0.03 0.02 0.02 0.02 0.03 0.03 0.02 0.02 0.03 0.03 0.03 0.03 0.04 0.03 0.03 0.01 0.02
0.00 0.00 0.00 0.00 0.00 0.00 0.00 0.00 0.00 0.01 0.01 0.02 0.03 0.02 0.02 0.04 0.06 0.05 0.03 0.02 0.01 0.01 0.01 0.01 0.02 0.02 0.01 0.01 0.01 0.01 0.02 0.02 0.01 0.01 0.02 0.02 0.03 0.03 0.03 0.03 0.02 0.02 0.02
0.00 0.00 0.00 0.00 0.00 0.00 0.00 0.00 0.00 0.01 0.02 0.02 0.01 0.00 0.00 0.03 0.06 0.04 0.02 0.01 0.01 0.01 0.01 0.01 0.01 0.01 0.00 0.00 0.00 0.00 0.01 0.01 0.00 0.01 0.01 0.02 0.02 0.02 0.02 0.01 0.01 0.01 0.01
0.00 0.00 0.00 0.00 0.00 0.00 0.00 0.00 0.01 0.01 0.02 0.02 0.02 0.01 0.00 0.03 0.04 0.03 0.02 0.01 0.01 0.00 0.00 0.00 0.00 0.00 0.00 0.00 0.00 0.00 0.00 0.00 0.00 0.00 0.01 0.01 0.01 0.01 0.00 0.00 0.00 0.00 0.00
0.00 0.00 0.00 0.00 0.00 0.00 0.00 0.00 0.01 0.01 0.01 0.01 0.01 0.01 0.02 0.03 0.02 0.01 0.01 0.00 0.00 0.00 0.00 0.00 0.00 0.00 0.00 0.00 0.00 0.00 0.00 0.00 0.00 0.00 0.00 0.01 0.00 0.00 0.00 0.00 0.00 0.00 0.00
0.00 0.00 0.00 0.00 0.00 0.00 0.00 0.00 0.00 0.00 0.00 0.00 0.01 0.01 0.01 0.01 0.01 0.01 0.00 0.00 0.00 0.00 0.00 0.00 0.00 0.00 0.00 0.00 0.00 0.00 0.00 0.00 0.00 0.00 0.00 0.00 0.00 0.00 0.00 0.00 0.00 0.00 0.00
0.00 0.00 0.00 0.00 0.00 0.00 0.00 0.00 0.00 0.00 0.00 0.00 0.00 0.00 0.00 0.01 0.01 0.01 0.01 0.00 0.00 0.00 0.00 0.00 0.00 0.00 0.00 0.00 0.00 0.00 0.00 0.00 0.00 0.00 0.00 0.00 0.00 0.00 0.00 0.00 0.00 0.00 0.00
0.00 0.00 0.00 0.00 0.00 0.00 0.00 0.00 0.00 0.00 0.00 0.00 0.00 0.00 0.00 0.01 0.01 0.01 0.00 0.00 0.00 0.00 0.00 0.00 0.00 0.00 0.00 0.00 0.00 0.00 0.00 0.00 0.00 0.00 0.00 0.00 0.00 0.00 0.00 0.00 0.00 0.00 0.00
MSLP
1020.49 1020.81 1021.16 1021.53 1021.90 1022.24 1022.56 1022.85 1023.10 1023.32 1023.50 1023.64 1023.74 1023.78 1023.77 1023.71 1023.60 1023.45 1023.28 1023.11 1022.94 1022.79 1022.66 1022.55 1022.43 1022.29 1022.12 1021.88 1021.58 1021.22 1020.81 1020.36 1019.90 1019.46 1019.06 1018.73 1018.46 1018.27 1018.13 1018.04 1017.98 1017.93 1017.88
1021.41 1021.69 1021.99 1022.30 1022.59 1022.87 1023.11 1023.33 1023.51 1023.67 1023.81 1023.92 1023.99 1024.01 1024.00 1023.93 1023.80 1023.64 1023.44 1023.23 1023.02 1022.82 1022.63 1022.47 1022.32 1022.17 1022.00 1021.80 1021.56 1021.26 1020.92 1020.54 1020.14 1019.73 1019.34 1018.99 1018.67 1018.40 1018.18 1017.98 1017.81 1017.64 1017.48
1022.05 1022.29 1022.54 1022.79 1023.03 1023.26 1023.46 1023.63 1023.79 1023.93 1024.06 1024.16 1024.23 1024.26 1024.24 1024.17 1024.04 1023.86 1023.63 1023.37 1023.11 1022.85 1022.61 1022.40 1022.22 1022.06 1021.91 1021.75 1021.57 1021.35 1021.08 1020.78 1020.44 1020.08 1019.70 1019.33 1018.98 1018.64 1018.33 1018.04 1017.76 1017.49 1017.23
1022.47 1022.67 1022.88 1023.09 1023.28 1023.48 1023.65 1023.82 1023.97 1024.12 1024.26 1024.37 1024.46 1024.51 1024.51 1024.44 1024.31 1024.11 1023.86 1023.57 1023.25 1022.94 1022.66 1022.41 1022.20 1022.04 1021.90 1021.77 1021.64 1021.48 1021.28 1021.04 1020.75 1020.42 1020.06 1019.68 1019.29 1018.90 1018.52 1018.14 1017.78 1017.43 1017.08
1022.77 1022.93 1023.09 1023.26 1023.43 1023.59 1023.76 1023.92 1024.09 1024.25 1024.41 1024.55 1024.67 1024.74 1024.76 1024.71 1024.58 1024.38 1024.11 1023.79 1023.45 1023.11 1022.79 1022.52 1022.29 1022.11 1021.97 1021.86 1021.76 1021.64 1021.48 1021.27 1021.00 1020.69 1020.32 1019.92 1019.50 1019.07 1018.64 1018.22 1017.80 1017.39 1016.99
1023.04 1023.15 1023.27 1023.40 1023.53 1023.68 1023.83 1023.99 1024.15 1024.33 1024.50 1024.67 1024.81 1024.90 1024.94 1024.91 1024.79 1024.60 1024.34 1024.03 1023.68 1023.33 1023.00 1022.70 1022.46 1022.27 1022.12 1022.01 1021.90 1021.78 1021.61 1021.40 1021.13 1020.80 1020.42 1020.00 1019.55 1019.10 1018.64 1018.19 1017.75 1017.32 1016.90
1023.33 1023.40 1023.49 1023.57 1023.67 1023.78 1023.90 1024.04 1024.20 1024.37 1024.54 1024.71 1024.86 1024.97 1025.02 1025.01 1024.92 1024.75 1024.51 1024.22 1023.89 1023.55 1023.23 1022.93 1022.68 1022.47 1022.30 1022.16 1022.01 1021.85 1021.65 1021.40 1021.10 1020.73 1020.32 1019.87 1019.40 1018.93 1018.46 1018.01 1017.58 1017.16 1016.75
1023.67 1023.72 1023.77 1023.81 1023.87 1023.93 1024.02 1024.12 1024.24 1024.39 1024.54 1024.69 1024.83 1024.94 1025.00 1025.00 1024.94 1024.81 1024.61 1024.36 1024.07 1023.76 1023.45 1023.16 1022.91 1022.67 1022.46 1022.27 1022.06 1021.83 1021.57 1021.26 1020.89 1020.48 1020.02 1019.55 1019.07 1018.59 1018.13 1017.70 1017.29 1016.91 1016.53
1024.07 1024.10 1024.11 1024.12 1024.13 1024.16 1024.19 1024.25 1024.33 1024.43 1024.54 1024.67 1024.78 1024.88 1024.94 1024.95 1024.91 1024.81 1024.65 1024.44 1024.20 1023.93 1023.64 1023.36 1023.09 1022.82 1022.57 1022.30 1022.02 1021.71 1021.36 1020.97 1020.54 1020.08 1019.59 1019.09 1018.60 1018.13 1017.69 1017.29 1016.92 1016.57 1016.24
1024.48 1024.50 1024.50 1024.48 1024.46 1024.44 1024.43 1024.44 1024.48 1024.53 1024.61 1024.69 1024.78 1024.86 1024.91 1024.92 1024.90 1024.82 1024.70 1024.52 1024.31 1024.06 1023.79 1023.51 1023.21 1022.91 1022.59 1022.25 1021.89 1021.49 1021.06 1020.60 1020.11 1019.60 1019.08 1018.57 1018.08 1017.63 1017.22 1016.84 1016.51 1016.20 1015.91
1024.87 1024.88 1024.87 1024.84 1024.80 1024.76 1024.72 1024.71 1024.71 1024.73 1024.78 1024.83 1024.89 1024.95 1024.99 1024.99 1024.97 1024.90 1024.79 1024.63 1024.42 1024.18 1023.90 1023.60 1023.26 1022.90 1022.52 1022.11 1021.66 1021.20 1020.70 1020.18 1019.65 1019.11 1018.58 1018.07 1017.59 1017.16 1016.77 1016.42 1016.12 1015.84 1015.57
1025.19 1025.21 1025.20 1025.17 1025.12 1025.07 1025.04 1025.02 1025.01 1025.03 1025.07 1025.11 1025.16 1025.19 1025.21 1025.21 1025.17 1025.08 1024.96 1024.78 1024.56 1024.29 1023.98 1023.63 1023.24 1022.82 1022.37 1021.89 1021.38 1020.85 1020.31 1019.76 1019.20 1018.66 1018.14 1017.64 1017.18 1016.77 1016.40 1016.07 1015.78 1015.51 1015.26
1025.40 1025.43 1025.43 1025.40 1025.37 1025.35 1025.33 1025.34 1025.36 1025.40 1025.44 1025.50 1025.54 1025.57 1025.58 1025.55 1025.47 1025.35 1025.19 1024.97 1024.69 1024.37 1024.00 1023.59 1023.14 1022.66 1022.15 1021.61 1021.06 1020.50 1019.93 1019.38 1018.83 1018.30 1017.79 1017.32 1016.88 1016.48 1016.12 1015.80 1015.50 1015.23 1014.98
1025.51 1025.53 1025.53 1025.53 1025.52 1025.53 1025.56 1025.61 1025.68 1025.76 1025.85 1025.92 1025.98 1026.01 1026.00 1025.94 1025.83 1025.66 1025.43 1025.14 1024.80 1024.40 1023.97 1023.49 1022.98 1022.44 1021.88 1021.31 1020.74 1020.17 1019.61 1019.07 1018.54 1018.04 1017.56 1017.12 1016.70 1016.31 1015.95 1015.61 1015.30 1015.01 1014.75
1025.49 1025.50 1025.51 1025.52 1025.54 1025.59 1025.67 1025.77 1025.90 1026.04 1026.18 1026.30 1026.38 1026.41 1026.39 1026.29 1026.13 1025.90 1025.61 1025.24 1024.82 1024.36 1023.85 1023.31 1022.76 1022.18 1021.60 1021.03 1020.46 1019.91 1019.37 1018.86 1018.37 1017.91 1017.46 1017.03 1016.62 1016.22 1015.85 1015.49 1015.15 1014.84 1014.55
1025.36 1025.35 1025.35 1025.36 1025.41 1025.50 1025.62 1025.78 1025.97 1026.17 1026.36 1026.51 1026.62 1026.66 1026.62 1026.50 1026.30 1026.01 1025.65 1025.22 1024.74 1024.22 1023.67 1023.09 1022.52 1021.94 1021.37 1020.82 1020.28 1019.77 1019.27 1018.80 1018.35 1017.91 1017.48 1017.06 1016.64 1016.22 1015.82 1015.42 1015.05 1014.70 1014.39
1025.14 1025.11 1025.09 1025.10 1025.15 1025.26 1025.43 1025.63 1025.87 1026.12 1026.35 1026.54 1026.66 1026.71 1026.66 1026.51 1026.27 1025.94 1025.54 1025.07 1024.55 1024.00 1023.44 1022.87 1022.31 1021.77 1021.24 1020.74 1020.25 1019.79 1019.34 1018.91 1018.48 1018.06 1017.63 1017.19 1016.75 1016.30 1015.85 1015.41 1014.99 1014.60 1014.26
1024.87 1024.80 1024.75 1024.75 1024.80 1024.92 1025.11 1025.34 1025.61 1025.89 1026.15 1026.36 1026.50 1026.54 1026.49 1026.33 1026.06 1025.71 1025.29 1024.81 1024.29 1023.76 1023.23 1022.71 1022.21 1021.73 1021.27 1020.83 1020.42 1020.01 1019.61 1019.20 1018.78 1018.35 1017.90 1017.43 1016.94 1016.44 1015.93 1015.44 1014.97 1014.55 1014.18
1024.56 1024.46 1024.38 1024.36 1024.41 1024.53 1024.72 1024.97 1025.26 1025.55 1025.82 1026.04 1026.18 1026.23 1026.16 1026.00 1025.73 1025.38 1024.97 1024.51 1024.04 1023.56 1023.10 1022.66 1022.25 1021.86 1021.49 1021.14 1020.79 1020.44 1020.06 1019.67 1019.24 1018.78 1018.29 1017.76 1017.22 1016.65 1016.09 1015.54 1015.02 1014.56 1014.16
1024.24 1024.11 1024.02 1023.98 1024.02 1024.14 1024.33 1024.58 1024.87 1025.17 1025.44 1025.66 1025.80 1025.84 1025.78 1025.62 1025.37 1025.04 1024.66 1024.26 1023.86 1023.46 1023.10 1022.76 1022.46 1022.18 1021.91 1021.64 1021.35 1021.04 1020.68 1020.28 1019.82 1019.31 1018.76 1018.17 1017.55 1016.92 1016.30 1015.70 1015.14 1014.64 1014.22
1023.94 1023.79 1023.69 1023.64 1023.68 1023.80 1023.99 1024.25 1024.54 1024.83 1025.10 1025.31 1025.45 1025.49 1025.43 1025.28 1025.05 1024.76 1024.44 1024.11 1023.79 1023.50 1023.25 1023.03 1022.83 1022.66 1022.48 1022.28 1022.04 1021.74 1021.38 1020.95 1020.45 1019.89 1019.27 1018.60 1017.92 1017.23 1016.56 1015.92 1015.33 1014.80 1014.36
1023.66 1023.51 1023.41 1023.37 1023.41 1023.54 1023.74 1024.00 1024.29 1024.58 1024.85 1025.05 1025.19 1025.23 1025.17 1025.04 1024.84 1024.60 1024.34 1024.09 1023.86 1023.67 1023.52 1023.41 1023.32 1023.23 1023.13 1022.98 1022.76 1022.47 1022.09 1021.62 1021.07 1020.44 1019.75 1019.02 1018.28 1017.55 1016.84 1016.17 1015.57 1015.04 1014.58
1023.43 1023.28 1023.19 1023.17 1023.23 1023.37 1023.59 1023.86 1024.15 1024.44 1024.70 1024.91 1025.03 1025.07 1025.03 1024.92 1024.75 1024.56 1024.36 1024.18 1024.04 1023.94 1023.88 1023.85 1023.84 1023.82 1023.77 1023.64 1023.44 1023.13 1022.72 1022.20 1021.59 1020.90 1020.15 1019.38 1018.60 1017.84 1017.12 1016.45 1015.86 1015.33 1014.88
1023.23 1023.10 1023.03 1023.03 1023.12 1023.28 1023.52 1023.80 1024.10 1024.39 1024.64 1024.84 1024.96 1025.01 1024.98 1024.88 1024.75 1024.59 1024.45 1024.33 1024.26 1024.23 1024.24 1024.28 1024.33 1024.35 1024.32 1024.21 1023.99 1023.66 1023.21 1022.65 1021.98 1021.25 1020.46 1019.65 1018.85 1018.09 1017.38 1016.73 1016.16 1015.66 1015.23
1023.07 1022.96 1022.91 1022.94 1023.05 1023.24 1023.49 1023.78 1024.09 1024.38 1024.63 1024.82 1024.94 1024.98 1024.96 1024.88 1024.77 1024.66 1024.56 1024.49 1024.47 1024.50 1024.57 1024.65 1024.73 1024.77 1024.75 1024.63 1024.40 1024.04 1023.56 1022.96 1022.26 1021.49 1020.68 1019.86 1019.06 1018.31 1017.62 1017.01 1016.48 1016.02 1015.63
1022.94 1022.85 1022.83 1022.89 1023.03 1023.23 1023.50 1023.79 1024.09 1024.37 1024.61 1024.79 1024.90 1024.94 1024.93 1024.87 1024.78 1024.70 1024.64 1024.62 1024.65 1024.72 1024.82 1024.94 1025.04 1025.10 1025.07 1024.95 1024.70 1024.32 1023.81 1023.18 1022.46 1021.67 1020.85 1020.04 1019.25 1018.53 1017.87 1017.30 1016.81 1016.40 1016.04
Thickness
5627 5626 5624 5620 5617 5613 5609 5606 5603 5600 5597 5594 5591 5589 5587 5584 5582 5581 5579 5576 5573 5569 5566 5563 5560 5558 5554 5550 5547 5543 5539 5534 5528 5525 5522 5519 5516 5513 5510 5507 5504 5503 5501
5612 5610 5608 5605 5602 5598 5594 5591 5588 5585 5583 5581 5579 5578 5575 5572 5570 5568 5566 5563 5560 5556 5553 5550 5546 5543 5539 5535 5531 5527 5523 5518 5513 5509 5506 5503 5501 5499 5497 5493 5492 5491 5489
5597 5595 5593 5589 5587 5584 5581 5578 5575 5574 5571 5568 5567 5565 5563 5560 5557 5555 5553 5550 5547 5543 5540 5536 5533 5529 5524 5520 5516 5512 5507 5504 5499 5495 5492 5490 5487 5486 5483 5482 5480 5479 5479
5584 5581 5578 5576 5573 5571 5568 5566 5563 5562 5559 5557 5555 5553 5550 5546 5543 5540 5539 5537 5534 5531 5528 5525 5521 5517 5511 5506 5502 5498 5493 5489 5486 5483 5481 5478 5476 5474 5472 5470 5470 5470 5470
5571 5569 5566 5563 5561 5559 5556 5554 5552 5551 5549 5547 5544 5541 5537 5532 5527 5524 5524 5524 5522 5520 5518 5514 5511 5505 5499 5494 5489 5484 5480 5477 5474 5472 5470 5468 5466 5464 5462 5461 5461 5462 5463
5559 5557 5555 5552 5550 5548 5546 5543 5541 5539 5537 5535 5533 5529 5524 5519 5513 5512 5510 5510 5510 5509 5506 5503 5500 5495 5490 5485 5480 5475 5472 5468 5465 5462 5461 5460 5459 5457 5456 5456 5455 5455 5456
5547 5546 5544 5542 5540 5539 5537 5534 5531 5529 5526 5524 5522 5518 5512 5506 5503 5502 5500 5500 5500 5499 5497 5494 5491 5487 5481 5476 5473 5471 5469 5466 5462 5458 5456 5455 5455 5454 5452 5451 5450 5450 5450
5537 5535 5534 5532 5530 5528 5526 5524 5521 5519 5517 5514 5512 5508 5503 5497 5494 5493 5492 5494 5494 5492 5490 5486 5483 5478 5473 5468 5467 5467 5465 5464 5462 5460 5457 5455 5455 5453 5450 5448 5447 5448 5450
5527 5525 5524 5522 5521 5519 5516 5514 5512 5510 5508 5506 5503 5499 5495 5490 5486 5485 5484 5486 5487 5485 5483 5479 5476 5472 5466 5463 5462 5462 5461 5461 5461 5459 5457 5456 5455 5453 5450 5446 5446 5446 5447
5518 5516 5514 5513 5511 5509 5507 5505 5503 5502 5500 5498 5495 5492 5489 5484 5480 5478 5476 5478 5478 5477 5476 5473 5469 5466 5462 5460 5458 5457 5458 5458 5457 5458 5458 5458 5456 5455 5453 5449 5446 5445 5445
5510 5508 5506 5505 5503 5501 5499 5497 5496 5494 5492 5490 5489 5486 5483 5478 5475 5472 5470 5469 5468 5468 5469 5468 5466 5462 5460 5458 5455 5455 5455 5453 5454 5456 5457 5458 5458 5456 5455 5453 5450 5447 5446
5502 5500 5499 5498 5497 5495 5493 5491 5489 5488 5487 5485 5483 5481 5478 5474 5470 5467 5465 5463 5461 5461 5463 5463 5462 5460 5459 5458 5457 5457 5455 5453 5455 5456 5456 5457 5457 5456 5456 5455 5454 5452 5451
5494 5493 5491 5490 5489 5488 5487 5486 5484 5483 5482 5480 5478 5476 5473 5470 5466 5463 5461 5461 5460 5459 5459 5459 5459 5460 5459 5459 5459 5457 5455 5455 5455 5455 5455 5455 5456 5456 5457 5456 5456 5455 5454
5488 5486 5485 5484 5483 5482 5480 5479 5478 5475 5474 5473 5472 5470 5467 5464 5460 5457 5456 5457 5457 5457 5455 5456 5458 5460 5459 5458 5458 5458 5457 5456 5455 5455 5455 5456 5457 5457 5457 5457 5456 5455 5455
5483 5482 5481 5480 5478 5476 5472 5468 5468 5463 5461 5460 5461 5460 5459 5457 5451 5448 5448 5450 5450 5450 5449 5453 5458 5460 5460 5459 5458 5458 5457 5456 5455 5455 5455 5455 5456 5456 5457 5457 5456 5455 5454
5478 5478 5478 5477 5475 5473 5469 5463 5458 5457 5454 5452 5450 5449 5450 5448 5448 5448 5448 5448 5449 5449 5448 5453 5456 5457 5456 5456 5455 5455 5455 5455 5454 5454 5454 5454 5455 5455 5456 5457 5457 5455 5454
5474 5474 5474 5474 5472 5470 5468 5464 5458 5452 5449 5448 5447 5446 5446 5446 5446 5447 5447 5448 5451 5451 5451 5454 5454 5454 5453 5453 5453 5452 5452 5452 5452 5452 5452 5453 5454 5454 5455 5456 5456 5455 5454
5472 5470 5470 5470 5469 5468 5466 5463 5461 5457 5453 5450 5446 5445 5445 5445 5446 5447 5447 5447 5453 5455 5454 5453 5452 5451 5450 5450 5450 5449 5449 5450 5450 5450 5451 5451 5452 5453 5454 5455 5455 5455 5455
5471 5470 5469 5468 5467 5465 5463 5462 5460 5457 5455 5453 5451 5447 5446 5446 5446 5447 5447 5449 5452 5452 5451 5450 5449 5449 5448 5448 5448 5447 5447 5447 5446 5447 5448 5449 5450 5452 5453 5454 5455 5455 5455
5468 5465 5464 5466 5466 5464 5462 5460 5458 5456 5454 5452 5451 5449 5448 5447 5448 5449 5449 5450 5450 5449 5447 5446 5447 5447 5446 5445 5445 5445 5444 5443 5443 5443 5444 5446 5448 5451 5452 5454 5455 5455 5455
5470 5466 5462 5464 5464 5463 5461 5459 5456 5455 5452 5451 5450 5447 5444 5447 5448 5448 5449 5448 5447 5446 5445 5444 5444 5444 5443 5442 5442 5441 5440 5439 5438 5438 5440 5443 5446 5450 5452 5454 5455 5456 5456
5471 5469 5467 5466 5464 5462 5459 5458 5456 5454 5452 5451 5450 5449 5446 5447 5448 5448 5447 5446 5445 5444 5443 5442 5442 5440 5439 5438 5437 5437 5435 5433 5433 5434 5436 5440 5445 5449 5452 5453 5454 5456 5456
5472 5472 5469 5467 5464 5458 5459 5457 5456 5454 5453 5451 5451 5450 5449 5448 5448 5447 5446 5445 5444 5443 5441 5440 5439 5437 5435 5434 5433 5431 5429 5428 5428 5430 5433 5438 5443 5448 5451 5453 5455 5455 5456
5477 5475 5473 5469 5466 5463 5461 5458 5457 5455 5453 5452 5451 5450 5449 5449 5448 5447 5446 5444 5443 5442 5440 5439 5437 5434 5433 5431 5430 5429 5427 5426 5428 5431 5434 5438 5444 5449 5451 5453 5455 5456 5457
5480 5478 5476 5472 5469 5466 5462 5460 5458 5456 5454 5453 5452 5451 5451 5450 5449 5447 5445 5444 5443 5441 5440 5438 5436 5432 5430 5429 5428 5427 5429 5431 5432 5434 5438 5442 5447 5449 5451 5454 5456 5457 5458
5485 5482 5479 5476 5471 5468 5465 5462 5460 5458 5456 5455 5454 5453 5452 5451 5450 5447 5445 5444 5443 5441 5439 5437 5435 5432 5429 5428 5428 5429 5431 5434 5437 5440 5442 5445 5448 5450 5451 5454 5456 5458 5459